Weather History for Plattsmouth, NE

Change the Weather History Date:

Friday, October 5, 2012

  Actual Average (KOFF) Record (KOFF)
Temperature  
Mean Temperature 42 °F -  
Max Temperature 51 °F 68 °F 86 °F (1997)
Min Temperature 34 °F 46 °F 32 °F (2012)
Degree Days  
Heating Degree Days 22    
Moisture  
Dew Point 27 °F    
Average Humidity 57    
Maximum Humidity 83    
Minimum Humidity 33    
Precipitation  
Precipitation 0.00 in - - ()
Sea Level Pressure  
Sea Level Pressure 30.29 in    
Wind  
Wind Speed 6 mph (NW)    
Max Wind Speed 13 mph    
Max Gust Speed 17 mph    
Visibility 10 miles    
Events      
Averages and records for this station are not official NWS values.
T = Trace of Precipitation, MM = Missing Value Source: NWS Daily Summary

Daily Weather History Graph

Daily Weather History Graph

Search for Another Location

Airport:

Trip Planner

Search our weather history database for the weather conditions in past years. The results will help you decide how hot, cold, wet, or windy it might be!

Date:

Astronomy

Oct. 05, 2012 Rise Set
Actual Time 7:24 AM CDT 6:58 PM CDT
Civil Twilight 6:57 AM CDT 7:25 PM CDT
Nautical Twilight 6:25 AM CDT 7:57 PM CDT
Astronomical Twilight 5:53 AM CDT 8:29 PM CDT
Moon 10:20 PM CDT (10/5) 12:35 PM CDT (10/5)
Length of Visible Light 12h 28m
Length of Day
11h 33m
Waning Gibbous, 74% of the Moon is Illuminated
Oct 5
Waning Gibbous
Oct 8
Last Quarter
Oct 15
New
Oct 21
First Quarter
Oct 29
Full

Hourly Weather History & Observations

Time (CDT) Temp. Windchill Dew Point Humidity Pressure Visibility Wind Dir Wind Speed Gust Speed Precip Events Conditions
12:15 AM 48.2 °F - 29.8 °F 49% 30.29 in 10.0 mi NNW 11.5 mph 16.1 mph N/A   Scattered Clouds
12:35 AM 46.9 °F - 30.2 °F 52% 30.30 in 10.0 mi NNW 5.8 mph - N/A   Clear
12:55 AM 46.4 °F 42.9 °F 30.0 °F 53% 30.30 in 10.0 mi North 6.9 mph - N/A   Clear
1:15 AM 45.5 °F 44.2 °F 29.8 °F 54% 30.30 in 10.0 mi North 3.5 mph - N/A   Clear
1:35 AM 45.3 °F 43.0 °F 29.8 °F 55% 30.30 in 10.0 mi North 4.6 mph - N/A   Clear
1:55 AM 44.8 °F 42.4 °F 29.7 °F 55% 30.30 in 10.0 mi North 4.6 mph - N/A   Clear
2:15 AM 44.2 °F 41.8 °F 29.8 °F 57% 30.30 in 10.0 mi North 4.6 mph - N/A   Clear
2:35 AM 43.3 °F - 29.8 °F 59% 30.30 in 10.0 mi Calm Calm - N/A   Clear
2:55 AM 42.3 °F - 29.7 °F 61% 30.30 in 10.0 mi Calm Calm - N/A   Clear
3:15 AM 41.4 °F - 30.0 °F 64% 30.30 in 10.0 mi Calm Calm - N/A   Clear
3:35 AM 41.9 °F - 30.2 °F 63% 30.30 in 10.0 mi Calm Calm - N/A   Clear
3:55 AM 41.0 °F - 30.2 °F 65% 30.30 in 10.0 mi Calm Calm - N/A   Clear
4:15 AM 39.2 °F 37.0 °F 30.2 °F 70% 30.30 in 10.0 mi WNW 3.5 mph - N/A   Clear
4:35 AM 37.6 °F 35.1 °F 29.8 °F 74% 30.29 in 10.0 mi NW 3.5 mph - N/A   Clear
4:55 AM 36.0 °F - 29.7 °F 78% 30.30 in 10.0 mi Calm Calm - N/A   Clear
5:15 AM 35.4 °F 31.5 °F 29.3 °F 78% 30.30 in 10.0 mi NW 4.6 mph - N/A   Clear
5:35 AM 35.4 °F - 29.7 °F 80% 30.29 in 10.0 mi Calm Calm - N/A   Clear
5:55 AM 35.4 °F - 29.5 °F 79% 30.29 in 10.0 mi Calm Calm - N/A   Clear
6:15 AM 34.2 °F 31.2 °F 29.1 °F 82% 30.30 in 10.0 mi WNW 3.5 mph - N/A   Clear
6:35 AM 34.0 °F 28.8 °F 29.1 °F 82% 30.30 in 10.0 mi WNW 5.8 mph - N/A   Clear
6:55 AM 34.2 °F 29.0 °F 29.5 °F 83% 30.30 in 10.0 mi WNW 5.8 mph - N/A   Clear
7:15 AM 34.9 °F 30.8 °F 30.2 °F 83% 30.31 in 10.0 mi WNW 4.6 mph - N/A   Clear
7:35 AM 35.6 °F 32.8 °F 30.9 °F 83% 30.31 in 10.0 mi WNW 3.5 mph - N/A   Clear
7:55 AM 36.5 °F 33.9 °F 31.1 °F 81% 30.30 in 10.0 mi West 3.5 mph - N/A   Clear
8:15 AM 36.9 °F 34.3 °F 31.5 °F 81% 30.31 in 10.0 mi WNW 3.5 mph - N/A   Clear
8:35 AM 37.6 °F 34.0 °F 31.8 °F 80% 30.31 in 10.0 mi NW 4.6 mph - N/A   Clear
8:55 AM 38.3 °F 33.9 °F 31.5 °F 76% 30.31 in 10.0 mi NW 5.8 mph - N/A   Mostly Cloudy
9:15 AM 38.5 °F 34.1 °F 31.1 °F 75% 30.33 in 10.0 mi WNW 5.8 mph - N/A   Overcast
9:35 AM 39.2 °F 37.0 °F 31.1 °F 73% 30.33 in 10.0 mi WNW 3.5 mph - N/A   Overcast
9:55 AM 40.1 °F - 31.5 °F 71% 30.32 in 10.0 mi Calm Calm - N/A   Overcast
10:15 AM 40.8 °F 38.8 °F 31.3 °F 69% 30.32 in 10.0 mi NW 3.5 mph - N/A   Scattered Clouds
10:35 AM 43.2 °F 39.0 °F 31.6 °F 64% 30.32 in 10.0 mi NNW 6.9 mph - N/A   Clear
10:55 AM 42.3 °F 36.3 °F 30.6 °F 63% 30.32 in 10.0 mi NW 10.4 mph - N/A   Clear
11:15 AM 44.2 °F 41.0 °F 30.6 °F 59% 30.33 in 10.0 mi NW 5.8 mph - N/A   Scattered Clouds
11:35 AM 43.7 °F 39.1 °F 28.2 °F 54% 30.34 in 10.0 mi NNW 8.1 mph - N/A   Mostly Cloudy
12:15 PM 43.7 °F 40.3 °F 28.6 °F 55% 30.35 in 10.0 mi NW 5.8 mph - N/A   Overcast
12:35 PM 44.1 °F 40.1 °F 28.0 °F 53% 30.34 in 10.0 mi NW 6.9 mph - N/A   Overcast
12:55 PM 44.6 °F 39.7 °F 27.5 °F 51% 30.33 in 10.0 mi NW 9.2 mph - N/A   Overcast
1:35 PM 44.8 °F 40.4 °F 28.9 °F 54% 30.32 in 10.0 mi West 8.1 mph - N/A   Mostly Cloudy
1:55 PM 45.7 °F 41.0 °F 28.4 °F 51% 30.32 in 10.0 mi NNW 9.2 mph - N/A   Scattered Clouds
2:15 PM 46.6 °F - 27.5 °F 47% 30.30 in 10.0 mi NW 11.5 mph 17.3 mph N/A   Mostly Cloudy
2:35 PM 48.6 °F - 27.5 °F 44% 30.29 in 10.0 mi NNW 8.1 mph - N/A   Mostly Cloudy
2:55 PM 48.9 °F - 25.7 °F 40% 30.28 in 10.0 mi NW 9.2 mph - N/A   Clear
3:15 PM 49.5 °F - 25.5 °F 39% 30.28 in 10.0 mi NW 8.1 mph - N/A   Clear
3:35 PM 50.0 °F - 25.3 °F 38% 30.26 in 10.0 mi NW 5.8 mph - N/A   Clear
3:55 PM 50.0 °F - 25.2 °F 38% 30.26 in 10.0 mi NW 9.2 mph - N/A   Clear
4:15 PM 50.9 °F - 24.3 °F 35% 30.25 in 10.0 mi WNW 8.1 mph - N/A   Clear
4:35 PM 50.4 °F - 24.4 °F 36% 30.25 in 10.0 mi WNW 8.1 mph - N/A   Clear
4:55 PM 50.9 °F - 23.9 °F 35% 30.25 in 10.0 mi NW 10.4 mph - N/A   Clear
5:15 PM 51.6 °F - 23.0 °F 33% 30.24 in 10.0 mi NW 12.7 mph - N/A   Clear
5:35 PM 50.7 °F - 22.1 °F 33% 30.25 in 10.0 mi NW 10.4 mph - N/A   Clear
5:55 PM 50.2 °F - 22.6 °F 34% 30.25 in 10.0 mi NW 8.1 mph - N/A   Clear
6:15 PM 49.5 °F - 22.5 °F 35% 30.25 in 10.0 mi WNW 8.1 mph - N/A   Clear
6:35 PM 48.0 °F - 21.7 °F 36% 30.26 in 10.0 mi NW 6.9 mph - N/A   Clear
6:55 PM 45.5 °F 43.2 °F 22.5 °F 40% 30.26 in 10.0 mi WNW 4.6 mph - N/A   Clear
7:15 PM 43.7 °F 42.1 °F 22.1 °F 42% 30.27 in 10.0 mi WNW 3.5 mph - N/A   Clear
7:35 PM 42.3 °F 40.5 °F 21.9 °F 44% 30.28 in 10.0 mi WNW 3.5 mph - N/A   Clear
7:55 PM 43.9 °F 42.3 °F 21.2 °F 41% 30.28 in 10.0 mi West 3.5 mph - N/A   Clear
8:15 PM 43.0 °F 41.3 °F 20.7 °F 41% 30.28 in 10.0 mi West 3.5 mph - N/A   Clear
8:35 PM 42.4 °F 39.6 °F 20.8 °F 42% 30.28 in 10.0 mi West 4.6 mph - N/A   Clear
8:55 PM 42.1 °F 40.2 °F 21.0 °F 43% 30.28 in 10.0 mi West 3.5 mph - N/A   Clear
9:15 PM 40.8 °F 37.8 °F 21.0 °F 45% 30.27 in 10.0 mi West 4.6 mph - N/A   Clear
9:35 PM 40.1 °F 36.9 °F 21.2 °F 47% 30.28 in 10.0 mi WNW 4.6 mph - N/A   Clear
9:55 PM 39.7 °F 36.5 °F 21.7 °F 49% 30.28 in 10.0 mi WNW 4.6 mph - N/A   Clear
10:35 PM 38.1 °F 32.9 °F 22.8 °F 54% 30.28 in 10.0 mi WNW 6.9 mph - N/A   Clear
10:55 PM 37.8 °F 32.5 °F 23.0 °F 55% 30.29 in 10.0 mi West 6.9 mph - N/A   Clear
11:15 PM 37.4 °F 32.1 °F 23.7 °F 58% 30.30 in 10.0 mi West 6.9 mph - N/A   Clear
11:55 PM 38.1 °F 32.3 °F 24.8 °F 59% 30.30 in 10.0 mi WNW 8.1 mph - N/A   Clear